Location: Lakeview Terrace
(41.4931°N, 81.7101°W)
Time: 20:06:21
(UTC+00:00)

Cosmos 1400 Rocket - Pass Details

Date: 29 October 2020
Orbit: 521 x 568 km, 81.2° (Epoch: 03 December)

Event Time Altitude Azimuth Distance (km) Brightness Sun altitude
Rises 23:27:38 0° 197° (SSW) 2,751 6.7 -12.3°
Reaches altitude 10° 23:29:50 10° 201° (SSW) 1,856 5.9 -12.7°
Maximum altitude 23:33:53 59° 282° (WNW) 656 3.5 -13.5°
Drops below altitude 10° 23:37:55 10° 2° (N) 1,851 5.4 -14.2°
Sets 23:40:07 0° 6° (N) 2,744 6.3 -14.6°
